Year,Month,Day,Hour,Minute,Value (Times are PST for temperature in C)
2015,11,20,00,00,0.30
2015,11,20,00,01,0.30
2015,11,20,00,02,0.30
2015,11,20,00,03,0.20
2015,11,20,00,04,0.20
2015,11,20,00,05,0.20
2015,11,20,00,06,0.10
2015,11,20,00,07,0.10
2015,11,20,00,08,0.20
2015,11,20,00,09,0.20
2015,11,20,00,10,0.20
2015,11,20,00,11,0.20
2015,11,20,00,12,0.30
2015,11,20,00,13,0.30
2015,11,20,00,14,0.30
2015,11,20,00,15,0.30
2015,11,20,00,16,0.30
2015,11,20,00,17,0.30
2015,11,20,00,18,0.30
2015,11,20,00,19,0.40
2015,11,20,00,20,0.40
2015,11,20,00,21,0.40
2015,11,20,00,22,0.40
2015,11,20,00,23,0.40
2015,11,20,00,24,0.30
2015,11,20,00,25,0.30
2015,11,20,00,26,0.20
2015,11,20,00,27,0.20
2015,11,20,00,28,0.20
2015,11,20,00,29,0.20
2015,11,20,00,30,0.10
2015,11,20,00,31,0.10
2015,11,20,00,32,0.00
2015,11,20,00,33,0.00
2015,11,20,00,34,-0.10
2015,11,20,00,35,-0.10
2015,11,20,00,36,-0.20
2015,11,20,00,37,-0.20
2015,11,20,00,38,-0.20
2015,11,20,00,39,-0.30
2015,11,20,00,40,-0.30
2015,11,20,00,41,-0.30
2015,11,20,00,42,-0.40
2015,11,20,00,43,-0.40
2015,11,20,00,44,-0.40
2015,11,20,00,45,-0.40
2015,11,20,00,46,-0.50
2015,11,20,00,47,-0.50
2015,11,20,00,48,-0.60
2015,11,20,00,49,-0.60
2015,11,20,00,50,-0.60
2015,11,20,00,51,-0.70
2015,11,20,00,52,-0.70
2015,11,20,00,53,-0.70
2015,11,20,00,54,-0.70
2015,11,20,00,55,-0.80
2015,11,20,00,56,-0.80
2015,11,20,00,57,-0.80
2015,11,20,00,58,-0.80
2015,11,20,00,59,-0.80
2015,11,20,01,00,-0.80
2015,11,20,01,01,-0.80
2015,11,20,01,02,-0.80
2015,11,20,01,03,-0.80
2015,11,20,01,04,-0.80
2015,11,20,01,05,-0.80
2015,11,20,01,06,-0.90
2015,11,20,01,07,-0.80
2015,11,20,01,08,-0.80
2015,11,20,01,09,-0.80
2015,11,20,01,10,-0.80
2015,11,20,01,11,-0.80
2015,11,20,01,12,-0.80
2015,11,20,01,13,-0.80
2015,11,20,01,14,-0.80
2015,11,20,01,15,-0.80
2015,11,20,01,16,-0.80
2015,11,20,01,17,-0.80
2015,11,20,01,18,-0.80
2015,11,20,01,19,-0.80
2015,11,20,01,20,-0.80
2015,11,20,01,21,-0.90
2015,11,20,01,22,-0.80
2015,11,20,01,23,-0.80
2015,11,20,01,24,-0.80
2015,11,20,01,25,-0.80
2015,11,20,01,26,-0.80
2015,11,20,01,27,-0.90
2015,11,20,01,28,-0.90
2015,11,20,01,29,-0.90
2015,11,20,01,30,-0.90
2015,11,20,01,31,-0.90
2015,11,20,01,32,-1.00
2015,11,20,01,33,-1.00
2015,11,20,01,34,-1.00
2015,11,20,01,35,-1.00
2015,11,20,01,36,-1.00
2015,11,20,01,37,-1.00
2015,11,20,01,38,-1.00
2015,11,20,01,39,-1.00
2015,11,20,01,40,-1.00
2015,11,20,01,41,-1.00
2015,11,20,01,42,-0.90
2015,11,20,01,43,-0.90
2015,11,20,01,44,-0.90
2015,11,20,01,45,-0.80
2015,11,20,01,46,-0.80
2015,11,20,01,47,-0.80
2015,11,20,01,48,-0.80
2015,11,20,01,49,-0.80
2015,11,20,01,50,-0.80
2015,11,20,01,51,-0.80
2015,11,20,01,52,-0.80
2015,11,20,01,53,-0.80
2015,11,20,01,54,-0.70
2015,11,20,01,55,-0.70
2015,11,20,01,56,-0.70
2015,11,20,01,57,-0.70
2015,11,20,01,58,-0.70
2015,11,20,01,59,-0.70
2015,11,20,02,00,-0.70
2015,11,20,02,01,-0.70
2015,11,20,02,02,-0.70
2015,11,20,02,03,-0.70
2015,11,20,02,04,-0.70
2015,11,20,02,05,-0.70
2015,11,20,02,06,-0.60
2015,11,20,02,07,-0.60
2015,11,20,02,08,-0.60
2015,11,20,02,09,-0.60
2015,11,20,02,10,-0.50
2015,11,20,02,11,-0.50
2015,11,20,02,12,-0.50
2015,11,20,02,13,-0.50
2015,11,20,02,14,-0.40
2015,11,20,02,15,-0.40
2015,11,20,02,16,-0.40
2015,11,20,02,17,-0.40
2015,11,20,02,18,-0.40
2015,11,20,02,19,-0.40
2015,11,20,02,20,-0.40
2015,11,20,02,21,-0.50
2015,11,20,02,22,-0.50
2015,11,20,02,23,-0.60
2015,11,20,02,24,-0.60
2015,11,20,02,25,-0.60
2015,11,20,02,26,-0.70
2015,11,20,02,27,-0.70
2015,11,20,02,28,-0.70
2015,11,20,02,29,-0.70
2015,11,20,02,30,-0.80
2015,11,20,02,31,-0.80
2015,11,20,02,32,-0.80
2015,11,20,02,33,-0.80
2015,11,20,02,34,-0.70
2015,11,20,02,35,-0.70
2015,11,20,02,36,-0.60
2015,11,20,02,37,-0.60
2015,11,20,02,38,-0.60
2015,11,20,02,39,-0.60
2015,11,20,02,40,-0.60
2015,11,20,02,41,-0.60
2015,11,20,02,42,-0.60
2015,11,20,02,43,-0.70
2015,11,20,02,44,-0.70
2015,11,20,02,45,-0.60
2015,11,20,02,46,-0.60
2015,11,20,02,47,-0.60
2015,11,20,02,48,-0.60
2015,11,20,02,49,-0.60
2015,11,20,02,50,-0.50
2015,11,20,02,51,-0.50
2015,11,20,02,52,-0.40
2015,11,20,02,53,-0.40
2015,11,20,02,54,-0.40
2015,11,20,02,55,-0.30
2015,11,20,02,56,-0.30
2015,11,20,02,57,-0.30
2015,11,20,02,58,-0.30
2015,11,20,02,59,-0.20
2015,11,20,03,00,-0.20
2015,11,20,03,01,-0.20
2015,11,20,03,02,-0.20
2015,11,20,03,03,-0.20
2015,11,20,03,04,-0.20
2015,11,20,03,05,-0.20
2015,11,20,03,06,-0.20
2015,11,20,03,07,-0.30
2015,11,20,03,08,-0.30
2015,11,20,03,09,-0.30
2015,11,20,03,10,-0.30
2015,11,20,03,11,-0.40
2015,11,20,03,12,-0.40
2015,11,20,03,13,-0.50
2015,11,20,03,14,-0.50
2015,11,20,03,15,-0.60
2015,11,20,03,16,-0.60
2015,11,20,03,17,-0.60
2015,11,20,03,18,-0.60
2015,11,20,03,19,-0.60
2015,11,20,03,20,-0.50
2015,11,20,03,21,-0.50
2015,11,20,03,22,-0.50
2015,11,20,03,23,-0.40
2015,11,20,03,24,-0.40
2015,11,20,03,25,-0.40
2015,11,20,03,26,-0.40
2015,11,20,03,27,-0.30
2015,11,20,03,28,-0.30
2015,11,20,03,29,-0.40
2015,11,20,03,30,-0.40
2015,11,20,03,31,-0.40
2015,11,20,03,32,-0.50
2015,11,20,03,33,-0.50
2015,11,20,03,34,-0.50
2015,11,20,03,35,-0.60
2015,11,20,03,36,-0.60
2015,11,20,03,37,-0.60
2015,11,20,03,38,-0.60
2015,11,20,03,39,-0.70
2015,11,20,03,40,-0.70
2015,11,20,03,41,-0.80
2015,11,20,03,42,-0.80
2015,11,20,03,43,-0.80
2015,11,20,03,44,-0.80
2015,11,20,03,45,-0.90
2015,11,20,03,46,-0.90
2015,11,20,03,47,-0.90
2015,11,20,03,48,-1.00
2015,11,20,03,49,-1.00
2015,11,20,03,50,-1.00
2015,11,20,03,51,-1.10
2015,11,20,03,52,-1.10
2015,11,20,03,53,-1.10
2015,11,20,03,54,-1.10
2015,11,20,03,55,-1.10
2015,11,20,03,56,-1.20
2015,11,20,03,57,-1.20
2015,11,20,03,58,-1.20
2015,11,20,03,59,-1.20
2015,11,20,04,00,-1.20
2015,11,20,04,01,-1.20
2015,11,20,04,02,-1.20
2015,11,20,04,03,-1.20
2015,11,20,04,04,-1.20
2015,11,20,04,05,-1.20
2015,11,20,04,06,-1.20
2015,11,20,04,07,-1.20
2015,11,20,04,08,-1.20
2015,11,20,04,09,-1.20
2015,11,20,04,10,-1.30
2015,11,20,04,11,-1.30
2015,11,20,04,12,-1.30
2015,11,20,04,13,-1.40
2015,11,20,04,14,-1.40
2015,11,20,04,15,-1.40
2015,11,20,04,16,-1.40
2015,11,20,04,17,-1.40
2015,11,20,04,18,-1.50
2015,11,20,04,19,-1.50
2015,11,20,04,20,-1.50
2015,11,20,04,21,-1.50
2015,11,20,04,22,-1.50
2015,11,20,04,23,-1.50
2015,11,20,04,24,-1.50
2015,11,20,04,25,-1.40
2015,11,20,04,26,-1.40
2015,11,20,04,27,-1.30
2015,11,20,04,28,-1.30
2015,11,20,04,29,-1.20
2015,11,20,04,30,-1.20
2015,11,20,04,31,-1.10
2015,11,20,04,32,-1.10
2015,11,20,04,33,-1.10
2015,11,20,04,34,-1.10
2015,11,20,04,35,-1.00
2015,11,20,04,36,-1.00
2015,11,20,04,37,-1.00
2015,11,20,04,38,-1.00
2015,11,20,04,39,-1.00
2015,11,20,04,40,-1.00
2015,11,20,04,41,-1.00
2015,11,20,04,42,-1.00
2015,11,20,04,43,-1.00
2015,11,20,04,44,-1.00
2015,11,20,04,45,-0.90
2015,11,20,04,46,-0.90
2015,11,20,04,47,-0.90
2015,11,20,04,48,-0.90
2015,11,20,04,49,-0.90
2015,11,20,04,50,-1.00
2015,11,20,04,51,-1.00
2015,11,20,04,52,-1.10
2015,11,20,04,53,-1.10
2015,11,20,04,54,-1.10
2015,11,20,04,55,-1.10
2015,11,20,04,56,-1.10
2015,11,20,04,57,-1.20
2015,11,20,04,58,-1.20
2015,11,20,04,59,-1.20
2015,11,20,05,00,-1.20
2015,11,20,05,01,-1.20
2015,11,20,05,02,-1.20
2015,11,20,05,03,-1.30
2015,11,20,05,04,-1.30
2015,11,20,05,05,-1.30
2015,11,20,05,06,-1.30
2015,11,20,05,07,-1.30
2015,11,20,05,08,-1.30
2015,11,20,05,09,-1.30
2015,11,20,05,10,-1.20
2015,11,20,05,11,-1.20
2015,11,20,05,12,-1.10
2015,11,20,05,13,-1.10
2015,11,20,05,14,-1.00
2015,11,20,05,15,-1.00
2015,11,20,05,16,-0.90
2015,11,20,05,17,-0.90
2015,11,20,05,18,-0.90
2015,11,20,05,19,-0.90
2015,11,20,05,20,-1.00
2015,11,20,05,21,-1.00
2015,11,20,05,22,-1.00
2015,11,20,05,23,-1.10
2015,11,20,05,24,-1.10
2015,11,20,05,25,-1.10
2015,11,20,05,26,-1.10
2015,11,20,05,27,-1.10
2015,11,20,05,28,-1.10
2015,11,20,05,29,-1.20
2015,11,20,05,30,-1.20
2015,11,20,05,31,-1.30
2015,11,20,05,32,-1.30
2015,11,20,05,33,-1.30
2015,11,20,05,34,-1.30
2015,11,20,05,35,-1.30
2015,11,20,05,36,-1.30
2015,11,20,05,37,-1.30
2015,11,20,05,38,-1.30
2015,11,20,05,39,-1.30
2015,11,20,05,40,-1.20
2015,11,20,05,41,-1.20
2015,11,20,05,42,-1.20
2015,11,20,05,43,-1.20
2015,11,20,05,44,-1.20
2015,11,20,05,45,-1.10
2015,11,20,05,46,-1.10
2015,11,20,05,47,-1.10
2015,11,20,05,48,-1.10
2015,11,20,05,49,-1.20
2015,11,20,05,50,-1.20
2015,11,20,05,51,-1.20
2015,11,20,05,52,-1.30
2015,11,20,05,53,-1.30
2015,11,20,05,54,-1.30
2015,11,20,05,55,-1.30
2015,11,20,05,56,-1.30
2015,11,20,05,57,-1.30
2015,11,20,05,58,-1.30
2015,11,20,05,59,-1.40
2015,11,20,06,00,-1.40
2015,11,20,06,01,-1.40
2015,11,20,06,02,-1.40
2015,11,20,06,03,-1.40
2015,11,20,06,04,-1.40
2015,11,20,06,05,-1.40
2015,11,20,06,06,-1.40
2015,11,20,06,07,-1.40
2015,11,20,06,08,-1.40
2015,11,20,06,09,-1.40
2015,11,20,06,10,-1.40
2015,11,20,06,11,-1.50
2015,11,20,06,12,-1.50
2015,11,20,06,13,-1.60
2015,11,20,06,14,-1.60
2015,11,20,06,15,-1.60
2015,11,20,06,16,-1.60
2015,11,20,06,17,-1.60
2015,11,20,06,18,-1.60
2015,11,20,06,19,-1.60
2015,11,20,06,20,-1.60
2015,11,20,06,21,-1.60
2015,11,20,06,22,-1.60
2015,11,20,06,23,-1.50
2015,11,20,06,24,-1.50
2015,11,20,06,25,-1.50
2015,11,20,06,26,-1.50
2015,11,20,06,27,-1.50
2015,11,20,06,28,-1.50
2015,11,20,06,29,-1.50
2015,11,20,06,30,-1.60
2015,11,20,06,31,-1.60
2015,11,20,06,32,-1.60
2015,11,20,06,33,-1.70
2015,11,20,06,34,-1.70
2015,11,20,06,35,-1.70
2015,11,20,06,36,-1.70
2015,11,20,06,37,-1.80
2015,11,20,06,38,-1.80
2015,11,20,06,39,-1.80
2015,11,20,06,40,-1.90
2015,11,20,06,41,-1.90
2015,11,20,06,42,-1.90
2015,11,20,06,43,-1.90
2015,11,20,06,44,-1.90
2015,11,20,06,45,-1.90
2015,11,20,06,46,-1.90
2015,11,20,06,47,-1.90
2015,11,20,06,48,-1.90
2015,11,20,06,49,-1.90
2015,11,20,06,50,-2.00
2015,11,20,06,51,-2.00
2015,11,20,06,52,-2.00
2015,11,20,06,53,-2.00
2015,11,20,06,54,-2.00
2015,11,20,06,55,-2.00
2015,11,20,06,56,-2.00
2015,11,20,06,57,-2.00
2015,11,20,06,58,-2.00
2015,11,20,06,59,-2.00
2015,11,20,07,00,-2.10
2015,11,20,07,01,-2.10
2015,11,20,07,02,-2.10
2015,11,20,07,03,-2.10
2015,11,20,07,04,-2.10
2015,11,20,07,05,-2.10
2015,11,20,07,06,-2.20
2015,11,20,07,07,-2.20
2015,11,20,07,08,-2.20
2015,11,20,07,09,-2.20
2015,11,20,07,10,-2.20
2015,11,20,07,11,-2.20
2015,11,20,07,12,-2.20
2015,11,20,07,13,-2.20
2015,11,20,07,14,-2.20
2015,11,20,07,15,-2.30
2015,11,20,07,16,-2.30
2015,11,20,07,17,-2.30
2015,11,20,07,18,-2.30
2015,11,20,07,19,-2.30
2015,11,20,07,20,-2.30
2015,11,20,07,21,-2.30
2015,11,20,07,22,-2.30
2015,11,20,07,23,-2.30
2015,11,20,07,24,-2.30
2015,11,20,07,25,-2.30
2015,11,20,07,26,-2.30
2015,11,20,07,27,-2.30
2015,11,20,07,28,-2.30
2015,11,20,07,29,-2.30
2015,11,20,07,30,-2.30
2015,11,20,07,31,-2.30
2015,11,20,07,32,-2.30
2015,11,20,07,33,-2.30
2015,11,20,07,34,-2.30
2015,11,20,07,35,-2.30
2015,11,20,07,36,-2.30
2015,11,20,07,37,-2.20
2015,11,20,07,38,-2.20
2015,11,20,07,39,-2.10
2015,11,20,07,40,-2.00
2015,11,20,07,41,-2.00
2015,11,20,07,42,-1.90
2015,11,20,07,43,-1.90
2015,11,20,07,44,-2.00
2015,11,20,07,45,-2.00
2015,11,20,07,46,-2.00
2015,11,20,07,47,-2.10
2015,11,20,07,48,-2.10
2015,11,20,07,49,-2.10
2015,11,20,07,50,-2.10
2015,11,20,07,51,-2.20
2015,11,20,07,52,-2.20
2015,11,20,07,53,-2.20
2015,11,20,07,54,-2.20
2015,11,20,07,55,-2.20
2015,11,20,07,56,-2.20
2015,11,20,07,57,-2.20
2015,11,20,07,58,-2.20
2015,11,20,07,59,-2.20
2015,11,20,08,00,-2.20
2015,11,20,08,01,-2.10
2015,11,20,08,02,-2.10
2015,11,20,08,03,-2.10
2015,11,20,08,04,-2.10
2015,11,20,08,05,-2.10
2015,11,20,08,06,-2.10
2015,11,20,08,07,-2.10
2015,11,20,08,08,-2.10
2015,11,20,08,09,-2.10
2015,11,20,08,10,-2.10
2015,11,20,08,11,-2.10
2015,11,20,08,12,-2.10
2015,11,20,08,13,-2.10
2015,11,20,08,14,-2.10
2015,11,20,08,15,-2.10
2015,11,20,08,16,-2.10
2015,11,20,08,17,-2.20
2015,11,20,08,18,-2.20
2015,11,20,08,19,-2.20
2015,11,20,08,20,-2.20
2015,11,20,08,21,-2.20
2015,11,20,08,22,-2.20
2015,11,20,08,23,-2.20
2015,11,20,08,24,-2.10
2015,11,20,08,25,-2.10
2015,11,20,08,26,-2.10
2015,11,20,08,27,-2.10
2015,11,20,08,28,-2.10
2015,11,20,08,29,-2.10
2015,11,20,08,30,-2.10
2015,11,20,08,31,-2.10
2015,11,20,08,32,-2.10
2015,11,20,08,33,-2.10
2015,11,20,08,34,-2.10
2015,11,20,08,35,-2.00
2015,11,20,08,36,-2.00
2015,11,20,08,37,-1.90
2015,11,20,08,38,-1.90
2015,11,20,08,39,-1.90
2015,11,20,08,40,-1.80
2015,11,20,08,41,-1.90
2015,11,20,08,42,-1.80
2015,11,20,08,43,-1.80
2015,11,20,08,44,-1.80
2015,11,20,08,45,-1.80
2015,11,20,08,46,-1.70
2015,11,20,08,47,-1.60
2015,11,20,08,48,-1.60
2015,11,20,08,49,-1.50
2015,11,20,08,50,-1.50
2015,11,20,08,51,-1.40
2015,11,20,08,52,-1.40
2015,11,20,08,53,-1.30
2015,11,20,08,54,-1.30
2015,11,20,08,55,-1.20
2015,11,20,08,56,-1.10
2015,11,20,08,57,-1.10
2015,11,20,08,58,-1.00
2015,11,20,08,59,-0.90
2015,11,20,09,00,-0.90
2015,11,20,09,01,-0.80
2015,11,20,09,02,-0.70
2015,11,20,09,03,-0.70
2015,11,20,09,04,-0.70
2015,11,20,09,05,-0.60
2015,11,20,09,06,-0.60
2015,11,20,09,07,-0.60
2015,11,20,09,08,-0.70
2015,11,20,09,09,-0.70
2015,11,20,09,10,-0.70
2015,11,20,09,11,-0.70
2015,11,20,09,12,-0.70
2015,11,20,09,13,-0.70
2015,11,20,09,14,-0.70
2015,11,20,09,15,-0.60
2015,11,20,09,16,-0.60
2015,11,20,09,17,-0.60
2015,11,20,09,18,-0.60
2015,11,20,09,19,-0.60
2015,11,20,09,20,-0.50
2015,11,20,09,21,-0.40
2015,11,20,09,22,-0.30
2015,11,20,09,23,-0.30
2015,11,20,09,24,-0.20
2015,11,20,09,25,-0.10
2015,11,20,09,26,-0.10
2015,11,20,09,27,0.00
2015,11,20,09,28,0.10
2015,11,20,09,29,0.10
2015,11,20,09,30,0.20
2015,11,20,09,31,0.20
2015,11,20,09,32,0.20
2015,11,20,09,33,0.30
2015,11,20,09,34,0.40
2015,11,20,09,35,0.40
2015,11,20,09,36,0.50
2015,11,20,09,37,0.50
2015,11,20,09,38,0.60
2015,11,20,09,39,0.70
2015,11,20,09,40,0.70
2015,11,20,09,41,0.80
2015,11,20,09,42,0.80
2015,11,20,09,43,0.90
2015,11,20,09,44,1.00
2015,11,20,09,45,1.10
2015,11,20,09,46,1.20
2015,11,20,09,47,1.30
2015,11,20,09,48,1.50
2015,11,20,09,49,1.60
2015,11,20,09,50,1.70
2015,11,20,09,51,1.70
2015,11,20,09,52,1.80
2015,11,20,09,53,1.80
2015,11,20,09,54,1.80
2015,11,20,09,55,1.80
2015,11,20,09,56,1.80
2015,11,20,09,57,1.90
2015,11,20,09,58,1.90
2015,11,20,09,59,1.90
2015,11,20,10,00,1.90
2015,11,20,10,01,2.00
2015,11,20,10,02,2.00
2015,11,20,10,03,2.10
2015,11,20,10,04,2.10
2015,11,20,10,05,2.20
2015,11,20,10,06,2.20
2015,11,20,10,07,2.30
2015,11,20,10,08,2.40
2015,11,20,10,09,2.50
2015,11,20,10,10,2.60
2015,11,20,10,11,2.70
2015,11,20,10,12,2.70
2015,11,20,10,13,2.80
2015,11,20,10,14,2.90
2015,11,20,10,15,3.00
2015,11,20,10,16,3.10
2015,11,20,10,17,3.20
2015,11,20,10,18,3.20
2015,11,20,10,19,3.30
2015,11,20,10,20,3.30
2015,11,20,10,21,3.30
2015,11,20,10,22,3.30
2015,11,20,10,23,3.30
2015,11,20,10,24,3.30
2015,11,20,10,25,3.30
2015,11,20,10,26,3.30
2015,11,20,10,27,3.30
2015,11,20,10,28,3.30
2015,11,20,10,29,3.30
2015,11,20,10,30,3.20
2015,11,20,10,31,3.20
2015,11,20,10,32,3.20
2015,11,20,10,33,3.20
2015,11,20,10,34,3.20
2015,11,20,10,35,3.20
2015,11,20,10,36,3.20
2015,11,20,10,37,3.20
2015,11,20,10,38,3.20
2015,11,20,10,39,3.20
2015,11,20,10,40,3.10
2015,11,20,10,41,3.10
2015,11,20,10,42,3.10
2015,11,20,10,43,3.10
2015,11,20,10,44,3.10
2015,11,20,10,45,3.10
2015,11,20,10,46,3.10
2015,11,20,10,47,3.10
2015,11,20,10,48,3.10
2015,11,20,10,49,3.10
2015,11,20,10,50,3.10
2015,11,20,10,51,3.10
2015,11,20,10,52,3.10
2015,11,20,10,53,3.10
2015,11,20,10,54,3.20
2015,11,20,10,55,3.20
2015,11,20,10,56,3.20
2015,11,20,10,57,3.20
2015,11,20,10,58,3.20
2015,11,20,10,59,3.20
2015,11,20,11,00,3.20
2015,11,20,11,01,3.20
2015,11,20,11,02,3.30
2015,11,20,11,03,3.40
2015,11,20,11,04,3.50
2015,11,20,11,05,3.60
2015,11,20,11,06,3.70
2015,11,20,11,07,3.70
2015,11,20,11,08,3.80
2015,11,20,11,09,3.80
2015,11,20,11,10,3.80
2015,11,20,11,11,3.80
2015,11,20,11,12,3.80
2015,11,20,11,13,3.80
2015,11,20,11,14,3.80
2015,11,20,11,15,3.70
2015,11,20,11,16,3.70
2015,11,20,11,17,3.80
2015,11,20,11,18,3.80
2015,11,20,11,19,3.80
2015,11,20,11,20,3.80
2015,11,20,11,21,3.80
2015,11,20,11,22,3.80
2015,11,20,11,23,3.70
2015,11,20,11,24,3.70
2015,11,20,11,25,3.70
2015,11,20,11,26,3.70
2015,11,20,11,27,3.70
2015,11,20,11,28,3.70
2015,11,20,11,29,3.70
2015,11,20,11,30,3.80
2015,11,20,11,31,3.80
2015,11,20,11,32,3.80
2015,11,20,11,33,3.80
2015,11,20,11,34,3.80
2015,11,20,11,35,3.80
2015,11,20,11,36,3.80
2015,11,20,11,37,3.80
2015,11,20,11,38,3.80
2015,11,20,11,39,3.80
2015,11,20,11,40,3.90
2015,11,20,11,41,3.90
2015,11,20,11,42,3.90
2015,11,20,11,43,3.90
2015,11,20,11,44,3.90
2015,11,20,11,45,3.90
2015,11,20,11,46,3.90
2015,11,20,11,47,4.00
2015,11,20,11,48,4.00
2015,11,20,11,49,4.00
2015,11,20,11,50,4.00
2015,11,20,11,51,4.00
2015,11,20,11,52,4.00
2015,11,20,11,53,4.10
2015,11,20,11,54,4.10
2015,11,20,11,55,4.10
2015,11,20,11,56,4.20
2015,11,20,11,57,4.20
2015,11,20,11,58,4.30
2015,11,20,11,59,4.30
2015,11,20,12,00,4.30
2015,11,20,12,01,4.40
2015,11,20,12,02,4.40
2015,11,20,12,03,4.50
2015,11,20,12,04,4.50
2015,11,20,12,05,4.60
2015,11,20,12,06,4.60
2015,11,20,12,07,4.60
2015,11,20,12,08,4.60
2015,11,20,12,09,4.60
2015,11,20,12,10,4.60
2015,11,20,12,11,4.60
2015,11,20,12,12,4.60
2015,11,20,12,13,4.60
2015,11,20,12,14,4.60
2015,11,20,12,15,4.60
2015,11,20,12,16,4.60
2015,11,20,12,17,4.70
2015,11,20,12,18,4.70
2015,11,20,12,19,4.80
2015,11,20,12,20,4.90
2015,11,20,12,21,4.90
2015,11,20,12,22,5.00
2015,11,20,12,23,5.00
2015,11,20,12,24,5.10
2015,11,20,12,25,5.10
2015,11,20,12,26,5.20
2015,11,20,12,27,5.20
2015,11,20,12,28,5.20
2015,11,20,12,29,5.20
2015,11,20,12,30,5.10
2015,11,20,12,31,5.00
2015,11,20,12,32,4.90
2015,11,20,12,33,4.90
2015,11,20,12,34,4.80
2015,11,20,12,35,4.80
2015,11,20,12,36,4.80
2015,11,20,12,37,4.80
2015,11,20,12,38,4.80
2015,11,20,12,39,4.80
2015,11,20,12,40,4.80
2015,11,20,12,41,4.80
2015,11,20,12,42,4.80
2015,11,20,12,43,4.80
2015,11,20,12,44,4.90
2015,11,20,12,45,4.90
2015,11,20,12,46,4.90
2015,11,20,12,47,4.90
2015,11,20,12,48,4.90
2015,11,20,12,49,4.90
2015,11,20,12,50,4.90
2015,11,20,12,51,4.90
2015,11,20,12,52,4.90
2015,11,20,12,53,4.90
2015,11,20,12,54,4.90
2015,11,20,12,55,4.90
2015,11,20,12,56,4.90
2015,11,20,12,57,4.80
2015,11,20,12,58,4.80
2015,11,20,12,59,4.80
2015,11,20,13,00,4.70
2015,11,20,13,01,4.70
2015,11,20,13,02,4.70
2015,11,20,13,03,4.70
2015,11,20,13,04,4.70
2015,11,20,13,05,4.70
2015,11,20,13,06,4.70
2015,11,20,13,07,4.70
2015,11,20,13,08,4.70
2015,11,20,13,09,4.70
2015,11,20,13,10,4.70
2015,11,20,13,11,4.70
2015,11,20,13,12,4.70
2015,11,20,13,13,4.70
2015,11,20,13,14,4.70
2015,11,20,13,15,4.80
2015,11,20,13,16,4.80
2015,11,20,13,17,4.80
2015,11,20,13,18,4.80
2015,11,20,13,19,4.80
2015,11,20,13,20,4.90
2015,11,20,13,21,4.90
2015,11,20,13,22,4.90
2015,11,20,13,23,5.00
2015,11,20,13,24,5.00
2015,11,20,13,25,5.00
2015,11,20,13,26,5.10
2015,11,20,13,27,5.10
2015,11,20,13,28,5.10
2015,11,20,13,29,5.20
2015,11,20,13,30,5.20
2015,11,20,13,31,5.20
2015,11,20,13,32,5.10
2015,11,20,13,33,5.10
2015,11,20,13,34,5.10
2015,11,20,13,35,5.10
2015,11,20,13,36,5.10
2015,11,20,13,37,5.00
2015,11,20,13,38,5.00
2015,11,20,13,39,4.90
2015,11,20,13,40,4.90
2015,11,20,13,41,4.90
2015,11,20,13,42,4.90
2015,11,20,13,43,4.90
2015,11,20,13,44,4.90
2015,11,20,13,45,4.90
2015,11,20,13,46,4.90
2015,11,20,13,47,4.90
2015,11,20,13,48,4.90
2015,11,20,13,49,4.90
2015,11,20,13,50,4.90
2015,11,20,13,51,4.90
2015,11,20,13,52,4.90
2015,11,20,13,53,4.90
2015,11,20,13,54,4.90
2015,11,20,13,55,4.90
2015,11,20,13,56,4.90
2015,11,20,13,57,4.90
2015,11,20,13,58,5.00
2015,11,20,13,59,5.00
2015,11,20,14,00,5.00
2015,11,20,14,01,5.00
2015,11,20,14,02,5.00
2015,11,20,14,03,5.00
2015,11,20,14,04,5.00
2015,11,20,14,05,5.00
2015,11,20,14,06,5.00
2015,11,20,14,07,5.00
2015,11,20,14,08,5.00
2015,11,20,14,09,5.00
2015,11,20,14,10,5.00
2015,11,20,14,11,5.00
2015,11,20,14,12,5.00
2015,11,20,14,13,5.10
2015,11,20,14,14,5.10
2015,11,20,14,15,5.10
2015,11,20,14,16,5.10
2015,11,20,14,17,5.10
2015,11,20,14,18,5.10
2015,11,20,14,19,5.10
2015,11,20,14,20,5.10
2015,11,20,14,21,5.10
2015,11,20,14,22,5.10
2015,11,20,14,23,5.20
2015,11,20,14,24,5.20
2015,11,20,14,25,5.20
2015,11,20,14,26,5.20
2015,11,20,14,27,5.20
2015,11,20,14,28,5.20
2015,11,20,14,29,5.20
2015,11,20,14,30,5.20
2015,11,20,14,31,5.20
2015,11,20,14,32,5.20
2015,11,20,14,33,5.20
2015,11,20,14,34,5.20
2015,11,20,14,35,5.10
2015,11,20,14,36,5.10
2015,11,20,14,37,5.20
2015,11,20,14,38,5.20
2015,11,20,14,39,5.10
2015,11,20,14,40,5.10
2015,11,20,14,41,5.10
2015,11,20,14,42,5.10
2015,11,20,14,43,5.10
2015,11,20,14,44,5.10
2015,11,20,14,45,5.10
2015,11,20,14,46,5.10
2015,11,20,14,47,5.00
2015,11,20,14,48,5.00
2015,11,20,14,49,5.00
2015,11,20,14,50,5.00
2015,11,20,14,51,5.00
2015,11,20,14,52,5.00
2015,11,20,14,53,5.00
2015,11,20,14,54,5.00
2015,11,20,14,55,4.90
2015,11,20,14,56,4.90
2015,11,20,14,57,4.90
2015,11,20,14,58,4.90
2015,11,20,14,59,4.90
2015,11,20,15,00,4.90
2015,11,20,15,01,4.90
2015,11,20,15,02,4.90
2015,11,20,15,03,4.90
2015,11,20,15,04,4.90
2015,11,20,15,05,4.90
2015,11,20,15,06,4.90
2015,11,20,15,07,4.80
2015,11,20,15,08,4.80
2015,11,20,15,09,4.80
2015,11,20,15,10,4.80
2015,11,20,15,11,4.80
2015,11,20,15,12,4.80
2015,11,20,15,13,4.80
2015,11,20,15,14,4.80
2015,11,20,15,15,4.80
2015,11,20,15,16,4.80
2015,11,20,15,17,4.80
2015,11,20,15,18,4.80
2015,11,20,15,19,4.80
2015,11,20,15,20,4.80
2015,11,20,15,21,4.70
2015,11,20,15,22,4.70
2015,11,20,15,23,4.70
2015,11,20,15,24,4.70
2015,11,20,15,25,4.70
2015,11,20,15,26,4.70
2015,11,20,15,27,4.70
2015,11,20,15,28,4.70
2015,11,20,15,29,4.70
2015,11,20,15,30,4.60
2015,11,20,15,31,4.60
2015,11,20,15,32,4.60
2015,11,20,15,33,4.60
2015,11,20,15,34,4.60
2015,11,20,15,35,4.60
2015,11,20,15,36,4.60
2015,11,20,15,37,4.60
2015,11,20,15,38,4.60
2015,11,20,15,39,4.60
2015,11,20,15,40,4.60
2015,11,20,15,41,4.60
2015,11,20,15,42,4.60
2015,11,20,15,43,4.60
2015,11,20,15,44,4.60
2015,11,20,15,45,4.50
2015,11,20,15,46,4.50
2015,11,20,15,47,4.50
2015,11,20,15,48,4.50
2015,11,20,15,49,4.40
2015,11,20,15,50,4.40
2015,11,20,15,51,4.40
2015,11,20,15,52,4.30
2015,11,20,15,53,4.30
2015,11,20,15,54,4.30
2015,11,20,15,55,4.30
2015,11,20,15,56,4.20
2015,11,20,15,57,4.20
2015,11,20,15,58,4.20
2015,11,20,15,59,4.20
2015,11,20,16,00,4.20
2015,11,20,16,01,4.20
2015,11,20,16,02,4.10
2015,11,20,16,03,4.10
2015,11,20,16,04,4.10
2015,11,20,16,05,4.10
2015,11,20,16,06,4.00
2015,11,20,16,07,4.00
2015,11,20,16,08,3.90
2015,11,20,16,09,3.90
2015,11,20,16,10,3.80
2015,11,20,16,11,3.80
2015,11,20,16,12,3.80
2015,11,20,16,13,3.70
2015,11,20,16,14,3.70
2015,11,20,16,15,3.70
2015,11,20,16,16,3.60
2015,11,20,16,17,3.60
2015,11,20,16,18,3.50
2015,11,20,16,19,3.40
2015,11,20,16,20,3.40
2015,11,20,16,21,3.30
2015,11,20,16,22,3.20
2015,11,20,16,23,3.20
2015,11,20,16,24,3.10
2015,11,20,16,25,3.00
2015,11,20,16,26,3.00
2015,11,20,16,27,2.90
2015,11,20,16,28,2.80
2015,11,20,16,29,2.80
2015,11,20,16,30,2.80
2015,11,20,16,31,2.70
2015,11,20,16,32,2.70
2015,11,20,16,33,2.60
2015,11,20,16,34,2.60
2015,11,20,16,35,2.60
2015,11,20,16,36,2.60
2015,11,20,16,37,2.50
2015,11,20,16,38,2.50
2015,11,20,16,39,2.40
2015,11,20,16,40,2.40
2015,11,20,16,41,2.40
2015,11,20,16,42,2.30
2015,11,20,16,43,2.30
2015,11,20,16,44,2.20
2015,11,20,16,45,2.20
2015,11,20,16,46,2.20
2015,11,20,16,47,2.10
2015,11,20,16,48,2.10
2015,11,20,16,49,2.10
2015,11,20,16,50,2.10
2015,11,20,16,51,2.00
2015,11,20,16,52,2.00
2015,11,20,16,53,1.90
2015,11,20,16,54,1.90
2015,11,20,16,55,1.90
2015,11,20,16,56,1.80
2015,11,20,16,57,1.80
2015,11,20,16,58,1.70
2015,11,20,16,59,1.60
2015,11,20,17,00,1.60
2015,11,20,17,01,1.50
2015,11,20,17,02,1.40
2015,11,20,17,03,1.40
2015,11,20,17,04,1.30
2015,11,20,17,05,1.30
2015,11,20,17,06,1.20
2015,11,20,17,07,1.20
2015,11,20,17,08,1.10
2015,11,20,17,09,1.10
2015,11,20,17,10,1.10
2015,11,20,17,11,1.00
2015,11,20,17,12,1.00
2015,11,20,17,13,1.00
2015,11,20,17,14,0.90
2015,11,20,17,15,0.90
2015,11,20,17,16,0.90
2015,11,20,17,17,0.80
2015,11,20,17,18,0.80
2015,11,20,17,19,0.80
2015,11,20,17,20,0.70
2015,11,20,17,21,0.70
2015,11,20,17,22,0.70
2015,11,20,17,23,0.60
2015,11,20,17,24,0.60
2015,11,20,17,25,0.60
2015,11,20,17,26,0.50
2015,11,20,17,27,0.50
2015,11,20,17,28,0.50
2015,11,20,17,29,0.40
2015,11,20,17,30,0.40
2015,11,20,17,31,0.40
2015,11,20,17,32,0.40
2015,11,20,17,33,0.40
2015,11,20,17,34,0.40
2015,11,20,17,35,0.30
2015,11,20,17,36,0.30
2015,11,20,17,37,0.30
2015,11,20,17,38,0.30
2015,11,20,17,39,0.30
2015,11,20,17,40,0.30
2015,11,20,17,41,0.20
2015,11,20,17,42,0.20